Weather History for Lampasas, TX

Change the Weather History Date:

Monday, November 5, 2012

  Actual Average (KGRK) Record (KGRK)
Temperature  
Mean Temperature 66 °F -  
Max Temperature 80 °F 68 °F 87 °F (2005)
Min Temperature 51 °F 50 °F 41 °F (1998)
Growing Degree Days 16 (Base 50)    
Moisture  
Dew Point 46 °F    
Average Humidity 53    
Maximum Humidity 94    
Minimum Humidity 27    
Precipitation  
Precipitation 0.00 in - - ()
Sea Level Pressure  
Sea Level Pressure 30.06 in    
Wind  
Wind Speed 3 mph (NW)    
Max Wind Speed 12 mph    
Max Gust Speed 20 mph    
Visibility 10 miles    
Events      
Averages and records for this station are not official NWS values.
T = Trace of Precipitation, MM = Missing Value Source: NWS Daily Summary

Daily Weather History Graph

Daily Weather History Graph

Search for Another Location

Airport:

Trip Planner

Search our weather history database for the weather conditions in past years. The results will help you decide how hot, cold, wet, or windy it might be!

Date:

Astronomy

Nov. 05, 2012 Rise Set
Actual Time 6:51 AM CST 5:40 PM CST
Civil Twilight 6:26 AM CST 6:05 PM CST
Nautical Twilight 5:57 AM CST 6:34 PM CST
Astronomical Twilight 5:29 AM CST 7:02 PM CST
Moon 11:18 PM CST (11/5) 12:11 PM CST (11/5)
Length of Visible Light 11h 39m
Length of Day
10h 48m
Waning Gibbous, 62% of the Moon is Illuminated
Nov 5
Waning Gibbous
Nov 6
Last Quarter
Nov 13
New
Nov 20
First Quarter
Nov 28
Full

Hourly Weather History & Observations

Time (CST) Temp. Heat Index Dew Point Humidity Pressure Visibility Wind Dir Wind Speed Gust Speed Precip Events Conditions
12:15 AM 53.6 °F - 46.4 °F 77% 30.08 in 10.0 mi Calm Calm - N/A   Clear
12:35 AM 53.6 °F - 46.4 °F 77% 30.08 in 10.0 mi Calm Calm - N/A   Clear
12:55 AM 53.6 °F - 48.2 °F 82% 30.08 in 10.0 mi Calm Calm - N/A   Clear
1:15 AM 53.6 °F - 46.4 °F 77% 30.08 in 10.0 mi Calm Calm - N/A   Clear
1:35 AM 55.4 °F - 48.2 °F 77% 30.07 in 10.0 mi Calm Calm - N/A   Clear
1:55 AM 55.4 °F - 50.0 °F 82% 30.07 in 10.0 mi Calm Calm - N/A   Clear
2:15 AM 60.8 °F - 51.8 °F 72% 30.06 in 10.0 mi West 3.5 mph - N/A   Clear
2:35 AM 60.8 °F - 51.8 °F 72% 30.06 in 10.0 mi West 3.5 mph - N/A   Clear
2:55 AM 60.8 °F - 53.6 °F 77% 30.05 in 10.0 mi West 3.5 mph - N/A   Clear
3:15 AM 60.8 °F - 53.6 °F 77% 30.05 in 10.0 mi West 3.5 mph - N/A   Clear
3:35 AM 60.8 °F - 53.6 °F 77% 30.04 in 10.0 mi WSW 3.5 mph - N/A   Clear
3:55 AM 57.2 °F - 51.8 °F 82% 30.05 in 10.0 mi Calm Calm - N/A   Clear
4:15 AM 55.4 °F - 50.0 °F 82% 30.05 in 10.0 mi Calm Calm - N/A   Clear
4:35 AM 57.2 °F - 51.8 °F 82% 30.05 in 10.0 mi Calm Calm - N/A   Clear
4:55 AM 53.6 °F - 50.0 °F 88% 30.05 in 10.0 mi Calm Calm - N/A   Clear
5:15 AM 53.6 °F - 50.0 °F 88% 30.05 in 10.0 mi Calm Calm - N/A   Clear
5:35 AM 53.6 °F - 51.8 °F 94% 30.05 in 10.0 mi Calm Calm - N/A   Clear
5:55 AM 53.6 °F - 50.0 °F 88% 30.05 in 10.0 mi Calm Calm - N/A   Clear
6:15 AM 53.6 °F - 50.0 °F 88% 30.05 in 10.0 mi Calm Calm - N/A   Clear
6:35 AM 51.8 °F - 48.2 °F 88% 30.06 in 10.0 mi Calm Calm - N/A   Clear
6:55 AM 53.6 °F - 51.8 °F 94% 30.06 in 10.0 mi Calm Calm - N/A   Clear
7:15 AM 53.6 °F - 51.8 °F 94% 30.06 in 10.0 mi Calm Calm - N/A   Clear
7:35 AM 57.2 °F - 51.8 °F 82% 30.07 in 10.0 mi Calm Calm - N/A   Clear
7:55 AM 57.2 °F - 51.8 °F 82% 30.07 in 10.0 mi Calm Calm - N/A   Clear
8:15 AM 60.8 °F - 53.6 °F 77% 30.07 in 10.0 mi Calm Calm - N/A   Clear
8:35 AM 64.4 °F - 53.6 °F 68% 30.08 in 10.0 mi WSW 3.5 mph - N/A   Clear
8:55 AM 69.8 °F - 55.4 °F 60% 30.08 in 10.0 mi WSW 5.8 mph - N/A   Clear
9:15 AM 69.8 °F - 53.6 °F 56% 30.08 in 10.0 mi West 6.9 mph - N/A   Clear
9:35 AM 71.6 °F - 55.4 °F 57% 30.08 in 10.0 mi West 9.2 mph - N/A   Clear
9:55 AM 73.4 °F - 55.4 °F 53% 30.09 in 10.0 mi WNW 9.2 mph - N/A   Clear
10:15 AM 75.2 °F - 55.4 °F 50% 30.09 in 10.0 mi West 9.2 mph - N/A   Clear
10:35 AM 75.2 °F - 53.6 °F 47% 30.09 in 10.0 mi NW 10.4 mph - N/A   Clear
10:55 AM 75.2 °F - 53.6 °F 47% 30.07 in 10.0 mi West 10.4 mph 17.3 mph N/A   Clear
11:15 AM 77.0 °F - 55.4 °F 47% 30.07 in 10.0 mi WNW 8.1 mph 17.3 mph N/A   Clear
11:35 AM 77.0 °F - 53.6 °F 44% 30.07 in 10.0 mi West 10.4 mph 18.4 mph N/A   Clear
11:55 AM 77.0 °F - 53.6 °F 44% 30.06 in 10.0 mi West 9.2 mph - N/A   Clear
12:15 PM 77.0 °F - 51.8 °F 41% 30.04 in 10.0 mi WNW 5.8 mph - N/A   Clear
12:35 PM 80.6 °F 80.3 °F 53.6 °F 39% 30.04 in 10.0 mi NW 10.4 mph 18.4 mph N/A   Clear
12:55 PM 80.6 °F - 51.8 °F 37% 30.03 in 10.0 mi WNW 9.2 mph 16.1 mph N/A   Clear
1:15 PM 80.6 °F - 51.8 °F 37% 30.02 in 10.0 mi WNW 9.2 mph - N/A   Clear
1:35 PM 80.6 °F - 50.0 °F 34% 30.01 in 10.0 mi NW 11.5 mph - N/A   Clear
1:55 PM 80.6 °F - 50.0 °F 34% 30.00 in 10.0 mi NW 6.9 mph - N/A   Clear
2:15 PM 80.6 °F - 48.2 °F 32% 29.99 in 10.0 mi NW 8.1 mph - N/A   Clear
2:35 PM 80.6 °F - 44.6 °F 28% 29.99 in 10.0 mi NNW 9.2 mph - N/A   Clear
2:55 PM 80.6 °F - 46.4 °F 30% 30.00 in 10.0 mi North 10.4 mph 18.4 mph N/A   Clear
3:15 PM 80.6 °F - 44.6 °F 28% 30.00 in 10.0 mi North 10.4 mph - N/A   Clear
3:35 PM 80.6 °F - 46.4 °F 30% 30.00 in 10.0 mi North 9.2 mph - N/A   Clear
3:55 PM 80.6 °F - 46.4 °F 30% 30.00 in 10.0 mi North 10.4 mph 19.6 mph N/A   Clear
4:15 PM 77.0 °F - 44.6 °F 32% 30.01 in 10.0 mi North 10.4 mph 17.3 mph N/A   Clear
4:35 PM 77.0 °F - 42.8 °F 29% 30.01 in 10.0 mi North 9.2 mph - N/A   Clear
4:55 PM 77.0 °F - 42.8 °F 29% 30.02 in 10.0 mi North 10.4 mph - N/A   Clear
5:15 PM 75.2 °F - 39.2 °F 27% 30.02 in 10.0 mi North 8.1 mph - N/A   Clear
5:35 PM 75.2 °F - 39.2 °F 27% 30.03 in 10.0 mi North 5.8 mph - N/A   Clear
5:55 PM 69.8 °F - 37.4 °F 31% 30.04 in 10.0 mi North 3.5 mph - N/A   Clear
6:15 PM 69.8 °F - 35.6 °F 28% 30.05 in 10.0 mi North 4.6 mph - N/A   Clear
6:35 PM 69.8 °F - 35.6 °F 28% 30.06 in 10.0 mi North 4.6 mph - N/A   Clear
6:55 PM 69.8 °F - 35.6 °F 28% 30.06 in 10.0 mi North 4.6 mph - N/A   Clear
7:15 PM 66.2 °F - 33.8 °F 30% 30.06 in 10.0 mi North 4.6 mph - N/A   Clear
7:35 PM 64.4 °F - 33.8 °F 32% 30.07 in 10.0 mi North 4.6 mph - N/A   Clear
7:55 PM 62.6 °F - 32.0 °F 32% 30.08 in 10.0 mi North 4.6 mph - N/A   Clear
8:15 PM 62.6 °F - 32.0 °F 32% 30.08 in 10.0 mi North 4.6 mph - N/A   Clear
8:35 PM 60.8 °F - 32.0 °F 34% 30.09 in 10.0 mi North 4.6 mph - N/A   Clear
8:55 PM 60.8 °F - 32.0 °F 34% 30.09 in 10.0 mi North 4.6 mph - N/A   Clear
9:15 PM 60.8 °F - 32.0 °F 34% 30.10 in 10.0 mi NNW 3.5 mph - N/A   Clear
9:35 PM 60.8 °F - 33.8 °F 36% 30.10 in 10.0 mi NNW 5.8 mph - N/A   Clear
9:55 PM 60.8 °F - 33.8 °F 36% 30.11 in 10.0 mi NNW 4.6 mph - N/A   Clear
10:15 PM 60.8 °F - 33.8 °F 36% 30.11 in 10.0 mi NNW 5.8 mph - N/A   Clear
10:35 PM 60.8 °F - 32.0 °F 34% 30.11 in 10.0 mi NNW 4.6 mph - N/A   Clear
10:55 PM 60.8 °F - 33.8 °F 36% 30.11 in 10.0 mi NNW 5.8 mph - N/A   Clear
11:15 PM 57.2 °F - 32.0 °F 38% 30.10 in 10.0 mi NNW 4.6 mph - N/A   Clear
11:35 PM 57.2 °F - 33.8 °F 41% 30.11 in 10.0 mi NNW 4.6 mph - N/A   Clear
11:55 PM 57.2 °F - 32.0 °F 38% 30.12 in 10.0 mi NNW 4.6 mph - N/A   Clear